Lapse_Rate
4.6 3.5 3.8 4.4 5.0 4.2 4.7 5.5 5.6 5.3 5.5 6.1 5.7 5.0 4.1 3.3 3.5 3.8 4.4 5.1 6.0 5.9 5.0 4.4 3.9 4.1 4.4 4.2 3.4 2.9 3.2 2.4 2.0 2.7 2.4 2.4 1.8 1.9 1.7 3.3 3.5 3.6 4.1
4.2 3.7 3.0 3.5 3.3 3.6 4.6 5.3 5.6 5.5 5.7 5.9 5.8 5.2 5.0 3.7 4.0 4.6 4.4 5.1 4.9 5.4 5.0 4.0 3.2 3.8 3.5 3.1 2.6 2.9 2.0 2.7 1.5 2.8 2.0 3.8 3.2 2.0 2.0 1.9 2.3 2.6 4.0
3.4 3.8 3.6 3.1 3.0 3.3 3.5 4.2 4.7 4.6 5.5 5.8 5.2 4.3 4.2 3.9 4.3 4.4 4.4 4.1 5.2 5.2 5.2 4.2 3.9 3.7 3.4 3.3 2.4 2.3 2.9 2.8 1.7 2.4 2.8 2.7 3.3 2.6 1.5 2.4 2.2 3.0 1.9
4.3 3.1 2.9 2.0 1.9 2.5 3.7 4.3 4.5 4.9 4.9 5.6 5.8 5.9 6.0 5.8 6.0 5.7 5.2 4.0 4.7 4.7 4.7 4.2 3.9 3.4 3.4 2.4 2.4 1.9 2.3 3.0 3.3 3.1 4.2 3.6 3.2 4.2 4.3 2.8 3.6 3.2 2.9
4.3 4.0 3.0 1.6 1.4 2.0 2.8 4.0 4.9 5.8 5.5 5.7 6.2 5.8 5.7 6.2 5.2 4.2 4.9 4.2 3.3 4.3 4.5 3.9 3.1 2.6 2.6 2.3 1.8 1.7 2.0 2.1 2.3 2.2 2.8 3.5 3.4 3.8 4.1 4.7 4.8 4.0 3.4
5.3 4.0 3.2 3.2 2.6 2.7 2.7 3.3 4.1 4.7 5.7 5.4 5.4 5.6 5.2 5.3 5.1 4.1 4.4 4.5 3.9 3.2 3.1 3.6 3.1 2.9 2.5 1.7 1.4 1.7 1.6 1.3 1.5 1.9 2.7 3.1 3.6 4.1 3.7 3.9 3.8 4.7 5.1
6.1 5.9 5.2 4.0 3.6 3.7 3.7 4.2 4.9 5.0 5.2 5.6 5.7 5.5 5.3 4.6 5.1 4.3 3.9 4.1 2.9 2.0 2.5 3.1 3.0 2.6 1.8 1.3 1.2 2.0 2.0 0.9 1.3 1.5 2.7 3.0 3.6 3.5 4.1 4.3 4.7 4.3 4.2
5.6 5.6 5.1 3.7 3.3 3.6 3.7 4.3 4.6 4.8 4.9 4.9 5.1 5.4 5.2 5.3 4.9 5.1 4.0 4.2 4.1 3.6 2.5 3.6 3.1 2.7 1.2 1.1 1.0 1.4 2.0 1.1 1.3 2.6 2.8 2.9 3.7 3.7 4.2 4.6 4.8 4.5 4.2
5.5 4.9 4.9 4.5 3.9 3.8 3.6 3.6 4.7 4.8 5.0 4.8 5.0 5.0 5.0 4.7 4.7 4.0 3.4 3.7 4.0 3.2 2.3 1.8 1.3 1.2 1.4 1.1 0.2 1.2 1.5 1.3 1.7 2.1 2.5 3.0 3.8 4.2 4.3 5.2 5.4 5.8 4.9
6.2 5.1 5.1 4.8 4.0 3.6 2.9 3.4 3.9 4.2 4.1 5.3 5.6 5.6 5.2 5.1 4.6 3.6 3.2 3.1 1.3 0.8 1.3 1.8 0.9 0.1 -0.0 -0.6 1.3 1.6 1.3 1.9 1.8 2.1 2.7 3.8 3.7 3.8 4.3 4.6 4.9 5.6 5.3
3.1 4.9 5.1 4.6 4.5 3.9 4.0 2.9 3.5 4.5 5.0 5.1 5.3 5.2 5.2 5.1 4.0 2.9 3.0 2.2 1.9 1.9 1.6 1.8 1.1 0.1 0.2 1.0 1.6 1.5 1.7 2.3 1.8 2.5 3.6 4.0 4.0 3.7 4.3 4.6 5.0 5.2 5.4
1.5 3.0 3.2 4.2 4.5 4.8 5.4 5.5 3.9 4.3 4.3 4.6 5.7 5.2 4.6 3.7 3.6 3.7 2.4 2.0 4.0 3.3 3.7 2.7 2.6 2.0 1.4 1.2 1.5 1.5 1.9 1.9 2.2 3.1 3.9 4.2 4.8 4.7 5.1 5.1 4.7 5.7 5.9
2.3 1.4 0.9 2.2 2.8 3.9 4.7 5.0 4.3 3.7 3.8 4.8 4.7 3.1 2.8 3.1 3.4 3.2 3.0 3.2 4.1 3.5 2.5 2.0 2.2 1.8 1.9 1.4 1.2 1.7 1.9 2.5 3.1 4.0 4.3 4.3 4.6 4.9 4.7 5.2 5.6 5.4 5.7
2.3 2.1 1.6 1.8 1.6 1.5 1.2 3.5 3.1 2.8 4.3 3.4 3.8 3.3 2.7 2.1 3.2 4.1 2.6 2.0 2.4 2.2 2.1 1.8 2.0 1.8 1.4 1.5 1.7 2.2 2.0 2.2 3.7 4.4 4.6 4.8 5.2 5.3 5.4 5.7 5.4 5.4 4.5
2.8 1.4 1.1 0.9 0.9 0.1 0.0 0.4 3.1 2.5 2.9 2.9 2.5 3.3 2.4 2.3 1.6 0.9 0.2 1.7 2.4 1.8 1.7 1.9 1.7 1.5 2.0 1.8 1.6 2.3 2.3 2.9 3.9 4.3 5.1 5.4 5.8 5.2 5.0 6.2 5.3 4.7 5.1
2.5 2.1 1.9 0.8 0.5 -0.2 -0.9 -1.0 -0.2 -0.3 1.1 1.9 2.3 1.2 0.6 0.5 -0.1 0.1 1.2 1.0 1.0 1.1 1.2 1.6 1.5 1.6 2.0 0.0 1.2 2.8 3.2 3.8 4.4 4.8 4.9 5.3 5.6 5.3 4.2 4.1 4.0 3.7 3.1
1.6 1.7 1.7 1.3 0.8 -0.2 -0.7 -0.9 -0.3 0.1 0.4 0.6 1.2 2.0 1.9 1.2 1.3 1.5 1.6 1.5 1.3 1.4 1.3 1.4 2.1 1.9 1.8 0.6 1.3 1.8 3.6 4.2 3.9 3.9 4.5 5.2 4.7 3.9 4.3 3.2 2.9 2.6 3.6
1.4 0.7 1.2 -0.1 -1.0 -1.6 -0.8 -0.4 1.0 1.1 1.0 1.6 1.6 1.7 1.8 2.1 1.9 1.4 0.7 -0.1 0.5 1.0 0.5 0.5 0.7 1.1 1.3 0.9 1.4 2.0 2.5 2.5 3.6 4.1 3.5 3.6 3.7 3.8 2.9 2.0 1.4 1.5 1.8
0.6 0.5 0.1 -2.1 -1.6 -0.6 -0.2 0.4 0.9 1.3 1.4 1.6 2.1 2.2 1.8 1.6 1.9 1.0 0.5 0.5 0.8 0.9 1.0 1.3 1.0 1.4 1.2 2.2 2.3 2.4 2.7 2.8 2.5 3.0 3.6 3.7 3.0 3.5 3.3 2.0 1.6 1.5 1.4
-1.0 -1.9 -2.3 -1.3 -0.8 -1.0 -0.2 0.5 0.7 1.6 1.4 1.3 1.0 1.5 1.5 1.3 0.4 -0.1 -0.1 -0.1 0.5 1.5 2.2 1.9 2.3 2.3 1.7 2.9 3.4 4.1 2.9 2.1 2.3 2.1 2.1 2.9 2.7 3.1 3.1 1.6 0.9 1.2 1.8
-0.9 -1.8 -1.2 -0.4 -0.8 -0.4 0.7 0.6 0.7 0.9 1.0 1.3 1.0 0.8 0.8 0.1 -0.0 -0.1 0.5 0.7 1.3 1.7 1.8 1.2 1.9 1.9 1.9 2.0 2.4 2.4 1.4 1.0 1.4 1.5 1.5 1.0 2.3 2.4 2.6 2.9 2.2 3.7 3.9
-1.7 -1.2 -1.3 -0.5 -0.0 0.8 1.1 0.9 0.8 0.4 0.7 0.8 0.7 0.6 0.8 1.5 1.3 1.4 2.0 2.6 2.3 1.2 0.7 1.3 0.9 0.8 0.5 1.5 2.0 2.1 1.7 1.6 1.4 1.6 1.2 1.1 2.5 2.9 3.5 3.8 5.3 5.1 3.9
-0.5 -0.0 -0.3 0.1 0.6 1.4 1.9 0.6 -0.1 0.8 1.0 1.2 1.4 1.8 2.3 2.6 2.7 2.3 2.2 2.6 2.5 1.7 1.2 1.1 0.1 -0.6 -0.9 -0.7 1.1 1.7 1.5 1.3 1.0 1.4 1.7 2.1 2.8 3.4 3.7 5.2 5.2 4.2 4.1
0.0 0.3 1.2 1.3 1.0 1.6 1.7 0.7 1.0 1.8 1.9 1.9 2.0 1.7 1.4 1.7 1.8 1.8 1.7 1.2 0.6 1.1 1.4 1.4 0.6 -0.3 -0.4 -0.4 0.2 0.5 0.6 1.3 1.6 1.7 1.7 1.9 2.7 3.2 3.9 4.8 5.4 5.4 4.9
1.3 1.9 1.7 1.3 1.1 1.7 1.6 1.6 1.4 1.8 1.6 1.6 1.3 0.7 0.5 0.5 0.2 0.0 0.5 0.8 0.8 1.6 1.4 1.3 1.5 -0.1 -0.1 1.3 1.8 1.8 1.8 1.0 2.1 0.7 0.5 2.4 3.0 3.4 4.3 4.8 5.3 4.7 4.4
1.4 1.4 1.2 1.1 1.4 1.9 1.7 1.9 2.0 1.9 1.3 1.1 0.8 0.3 0.3 0.6 1.0 0.9 0.9 2.1 2.2 2.4 2.5 2.3 1.7 1.7 2.3 2.6 3.0 2.9 3.2 4.0 4.1 3.1 2.5 1.6 1.4 3.6 4.8 4.4 4.1 4.1 3.7
Wind_Speed
9 10 10 11 12 10 11 12 11 9 9 9 9 5 5 2 3 5 9 13 16 16 15 9 8 11 8 9 8 4 5 1 3 4 2 1 2 3 3 12 14 14 19
10 12 11 10 12 14 14 14 14 12 11 9 8 5 7 3 4 6 11 16 15 17 14 11 6 10 6 6 6 5 3 2 3 3 2 1 3 2 4 4 7 10 15
15 14 16 15 13 15 16 15 16 15 13 12 6 3 3 2 5 6 8 10 14 15 15 14 10 9 7 7 7 6 7 4 1 2 4 2 4 1 0 4 4 5 6
17 15 17 17 17 16 13 14 14 14 13 14 10 10 10 10 10 9 8 7 16 16 17 16 14 10 8 6 6 4 4 5 4 2 2 2 5 4 2 2 3 4 5
22 21 21 20 20 17 16 14 15 15 15 13 14 10 12 10 6 4 8 9 6 16 17 15 13 8 7 6 7 7 7 5 5 5 3 1 1 2 2 3 3 1 4
23 23 23 19 18 16 16 16 18 19 17 17 17 17 17 13 9 7 8 9 8 6 12 14 13 11 9 8 7 6 9 6 5 4 4 3 3 3 3 2 3 3 3
21 21 21 19 18 20 21 19 21 22 20 19 19 20 19 15 16 13 11 10 6 4 8 10 9 7 10 11 10 10 8 8 8 7 5 3 3 3 3 3 2 4 2
20 22 23 23 22 24 23 22 22 22 22 23 23 20 20 13 13 15 10 9 10 8 11 11 10 10 9 10 12 8 7 8 7 9 6 4 3 3 3 3 3 2 3
20 22 22 22 22 22 25 26 24 25 25 26 22 22 19 20 15 14 10 9 11 8 8 10 8 7 10 11 8 6 7 7 7 8 7 3 2 2 2 1 1 3 3
19 19 19 21 21 23 24 24 25 27 28 22 18 17 19 16 17 11 12 9 5 6 5 6 8 11 11 8 7 5 5 8 5 5 6 4 3 3 3 2 2 3 3
14 16 16 19 21 21 20 22 23 22 20 19 18 20 17 16 9 6 5 4 7 4 5 6 7 9 9 8 8 7 9 9 8 5 5 4 4 3 2 2 0 3 3
11 15 13 16 18 18 17 19 20 20 21 20 10 6 1 4 7 7 9 10 6 5 13 10 10 10 9 9 9 10 9 10 9 7 6 7 4 3 2 1 3 4 5
6 7 9 12 13 15 17 17 18 21 20 9 11 12 13 14 18 16 13 13 11 14 10 10 11 10 10 9 7 8 9 9 8 8 8 7 5 2 1 2 3 3 4
9 11 8 10 9 8 9 15 17 19 14 13 12 13 12 14 13 11 12 11 10 10 10 8 8 8 9 9 9 8 8 7 7 9 8 6 5 4 2 2 4 4 4
8 8 8 7 7 7 6 5 13 14 12 15 15 15 8 8 7 10 11 9 8 6 6 7 6 8 8 7 9 9 8 9 8 6 6 5 3 4 1 2 4 5 5
10 11 9 8 9 9 9 7 7 6 8 9 8 7 9 11 10 10 10 9 8 7 8 7 9 9 6 12 11 10 8 8 8 7 4 2 2 6 9 11 8 5 3
10 10 12 11 11 11 11 10 9 11 12 12 11 10 11 11 10 9 9 9 8 8 7 7 8 7 7 12 12 11 7 6 6 5 3 2 5 6 5 6 5 5 5
10 11 11 7 7 8 8 10 10 10 12 11 10 10 10 10 11 10 10 9 7 9 7 6 6 6 4 13 13 13 8 6 6 5 6 5 4 5 5 4 4 4 5
10 10 10 8 10 12 12 13 11 10 10 10 11 11 11 11 10 10 9 7 9 7 5 6 7 8 6 12 13 10 6 7 6 6 6 5 5 5 8 4 5 5 5
9 11 9 10 12 8 11 13 11 10 10 10 11 10 10 11 10 10 9 4 6 7 6 6 6 10 7 10 10 9 5 6 3 4 5 8 6 9 10 4 4 6 6
12 9 11 13 11 11 12 11 10 10 10 11 12 11 10 11 11 9 8 7 8 9 8 10 9 11 10 11 16 13 6 4 3 3 3 3 7 9 9 9 3 5 7
10 10 12 10 9 11 13 11 10 8 11 12 11 11 10 9 8 11 7 9 9 10 8 10 9 7 8 14 15 15 13 8 4 3 2 2 9 8 8 4 10 12 7
12 10 12 11 6 8 12 12 8 11 11 11 11 10 9 8 7 8 7 6 7 8 8 8 8 6 5 5 13 13 11 9 3 2 2 5 7 7 3 7 9 6 4
11 10 13 11 8 7 9 12 11 11 12 11 9 7 8 9 8 6 4 5 5 6 6 7 7 5 4 4 3 4 4 4 3 0 1 3 3 2 3 3 4 3 4
8 10 11 10 9 11 11 11 12 13 11 10 9 9 8 9 9 9 6 6 6 4 6 4 6 5 3 4 5 4 2 1 1 0 1 2 2 2 3 2 3 4 5
10 10 10 12 10 11 11 10 10 13 13 11 8 7 7 7 7 8 9 17 16 17 15 12 9 5 9 7 6 4 3 5 6 3 2 2 1 1 2 2 3 3 5
Wind_Direction
170 167 167 171 165 173 182 181 182 183 168 178 185 180 213 227 277 242 215 224 222 213 194 182 180 169 175 183 183 151 162 159 150 103 34 299 266 249 214 182 189 193 195
160 165 179 184 179 178 190 186 186 184 192 185 187 187 194 210 227 226 251 234 214 197 194 188 188 180 185 182 170 157 134 114 160 138 80 241 319 308 227 221 189 205 198
180 177 181 191 187 193 191 190 189 185 190 190 183 181 179 242 222 234 241 235 212 196 197 200 194 192 189 187 186 172 154 143 199 205 143 114 227 320 354 228 223 208 201
191 187 185 188 193 198 195 193 194 196 195 192 196 204 203 207 218 224 223 214 207 205 204 197 196 193 193 188 182 162 163 140 149 83 292 180 156 182 281 270 234 218 222
184 188 195 197 191 185 191 194 194 203 205 201 204 206 218 220 228 220 225 227 210 210 207 196 194 195 196 196 170 170 165 168 156 167 168 129 75 75 133 219 266 358 245
193 194 193 188 192 189 193 194 195 206 207 207 208 209 213 217 221 228 223 226 223 212 205 198 196 200 202 195 180 182 167 166 144 161 149 165 168 187 167 192 234 232 269
190 194 191 191 189 191 193 197 200 205 207 208 211 213 215 213 220 223 221 214 208 201 198 184 195 205 202 195 174 179 178 168 173 173 182 174 175 139 175 174 249 232 253
192 196 194 191 192 193 194 198 201 207 207 209 213 215 219 219 223 225 216 215 216 212 190 202 201 203 184 189 183 176 180 163 162 176 179 163 183 163 186 182 180 275 260
196 201 198 196 194 195 198 198 201 207 208 211 213 215 215 218 218 220 204 205 209 208 190 182 167 171 180 193 179 174 169 162 164 174 168 158 156 176 203 238 84 195 240
200 204 201 200 198 201 202 201 206 208 212 214 215 221 222 219 221 213 202 203 145 127 149 189 182 168 181 164 169 162 153 161 167 164 160 164 171 183 161 136 223 220 221
204 202 202 205 206 205 200 203 208 213 214 210 214 218 216 222 205 186 174 167 153 169 188 182 172 159 161 168 175 165 163 170 170 155 169 154 142 140 173 162 359 280 230
203 198 190 197 203 208 209 205 208 211 215 212 215 171 200 156 144 147 163 181 153 220 219 185 190 184 170 171 176 168 172 171 165 159 152 152 158 144 62 322 273 252 262
199 175 165 185 192 206 211 207 206 212 214 160 157 157 180 182 187 183 188 184 189 211 189 187 186 171 176 171 162 158 162 169 161 158 156 156 155 142 156 281 281 280 288
196 190 185 173 170 177 186 202 205 211 188 178 185 194 201 197 214 199 179 184 175 179 180 175 167 161 156 158 155 157 162 147 151 159 159 163 164 165 115 266 274 278 283
194 217 202 174 159 161 141 174 202 204 177 181 193 209 207 197 169 145 149 150 156 149 145 146 140 140 151 156 154 158 153 152 153 151 164 174 154 114 187 319 317 314 302
216 203 204 178 158 159 149 141 137 123 137 166 186 154 154 152 151 138 133 129 128 127 133 144 140 144 153 148 145 152 155 150 154 159 148 102 21 36 51 60 45 29 358
216 194 194 188 170 160 151 149 136 125 125 142 138 141 140 136 131 130 127 131 129 130 123 122 134 136 139 156 150 136 137 132 121 126 107 45 54 80 31 20 347 336 319
202 189 186 161 151 131 124 126 128 125 123 127 127 130 133 133 132 133 137 130 133 128 129 130 135 132 130 140 128 110 108 107 108 97 91 94 70 51 45 2 340 328 320
191 183 176 148 131 134 135 129 125 125 126 135 139 137 136 133 136 127 127 121 120 124 127 134 129 128 126 124 119 109 105 102 96 88 76 78 69 23 6 359 334 311 300
153 140 125 121 129 133 130 126 126 128 132 132 127 128 129 129 125 128 131 123 121 125 123 102 87 91 86 100 103 110 110 100 99 78 67 45 32 5 341 323 312 319 315
137 125 138 147 145 138 132 127 130 135 133 125 122 122 126 128 132 129 126 126 118 111 100 89 80 82 87 86 93 88 87 95 86 65 39 26 352 331 333 338 334 311 340
136 140 136 139 143 141 131 131 129 129 124 122 121 121 123 128 127 128 128 126 123 112 107 107 94 84 83 85 85 88 89 83 86 73 46 325 328 337 343 356 342 343 339
152 143 138 131 126 131 135 127 129 127 119 114 116 115 109 111 111 116 115 110 113 121 126 125 120 113 90 82 90 94 92 83 97 107 337 333 338 346 3 352 351 353 329
146 135 131 128 113 109 110 121 123 116 111 108 96 79 82 76 68 63 63 93 97 112 123 129 128 121 114 111 108 98 105 102 135 176 317 320 311 359 14 356 351 344 334
131 131 128 122 118 117 113 117 120 115 104 94 91 86 81 85 78 62 55 65 45 72 114 104 126 129 118 102 88 83 94 156 198 190 49 53 44 29 1 349 343 338 338
113 104 103 107 104 101 100 102 107 110 108 99 95 95 95 92 94 96 83 65 78 83 89 96 105 85 112 104 65 58 46 33 53 71 77 64 27 7 351 349 339 339 334